N68CB KGSP-KPWM

Flight info

Callsign N68CB
Flight time 1h 40m
Altitude 45000
Route BIMMR3 DRIVN GIZMO GVE Q34 RBV Q419 JFK BDR SCOGS3
Aircraft C750/M-SBDE3FGHRWXY/S

Departure

Time 2026-05-09 03:18
Airport Greenville-Spartanburg International Airport (KGSP)

Arrival

Time 2026-05-09 04:59
Airport Portland International Jetport (KPWM)
Time Latitude Longitude Altitude Speed Heading
2026-05-09 03:08 34.89893 -82.21209 956 ft 0 kts 34°
2026-05-09 03:14 34.89909 -82.21200 956 ft 6 kts 25°
2026-05-09 03:14 34.89938 -82.21203 957 ft 5 kts 305°
2026-05-09 03:15 34.89915 -82.21263 956 ft 9 kts 221°
2026-05-09 03:15 34.89925 -82.21331 956 ft 11 kts 302°
2026-05-09 03:15 34.89977 -82.21337 957 ft 10 kts 33°
2026-05-09 03:15 34.90049 -82.21283 957 ft 15 kts 30°
2026-05-09 03:16 34.90142 -82.21211 956 ft 17 kts 33°
2026-05-09 03:16 34.90248 -82.21129 957 ft 18 kts 32°
2026-05-09 03:16 34.90350 -82.21051 957 ft 17 kts 32°
2026-05-09 03:16 34.90448 -82.20977 957 ft 16 kts 32°
2026-05-09 03:17 34.90542 -82.20905 957 ft 16 kts 32°
2026-05-09 03:17 34.90631 -82.20836 957 ft 15 kts 33°
2026-05-09 03:17 34.90700 -82.20828 957 ft 9 kts 295°
2026-05-09 03:17 34.90739 -82.20919 956 ft 16 kts 301°
2026-05-09 03:18 34.90692 -82.21027 956 ft 21 kts 213°
2026-05-09 03:18 34.90255 -82.21360 957 ft 129 kts 213°
2026-05-09 03:18 34.89363 -82.22055 1232 ft 165 kts 212°
2026-05-09 03:18 34.88336 -82.22828 1857 ft 188 kts 209°
2026-05-09 03:19 34.87000 -82.23331 2647 ft 210 kts 186°
2026-05-09 03:19 34.85484 -82.23085 3458 ft 234 kts 165°
2026-05-09 03:19 34.83954 -82.22136 4240 ft 256 kts 148°
2026-05-09 03:19 34.82657 -82.20629 5444 ft 260 kts 131°
2026-05-09 03:20 34.81774 -82.18704 6672 ft 263 kts 114°
2026-05-09 03:20 34.81261 -82.16538 7411 ft 283 kts 106°
2026-05-09 03:20 34.80806 -82.14090 8205 ft 297 kts 105°
2026-05-09 03:20 34.80298 -82.11629 9247 ft 304 kts 107°
2026-05-09 03:21 34.79736 -82.09141 10100 ft 314 kts 108°
2026-05-09 03:21 34.79148 -82.06491 10515 ft 337 kts 107°
2026-05-09 03:21 34.78534 -82.03619 10709 ft 365 kts 107°
2026-05-09 03:21 34.77874 -82.00533 11051 ft 383 kts 107°
2026-05-09 03:22 34.77192 -81.97401 11846 ft 385 kts 107°
2026-05-09 03:22 34.76162 -81.94388 12387 ft 388 kts 123°
2026-05-09 03:22 34.74833 -81.91514 13024 ft 396 kts 116°
2026-05-09 03:22 34.74209 -81.88229 13696 ft 404 kts 96°
2026-05-09 03:23 34.74386 -81.84805 14313 ft 409 kts 77°
2026-05-09 03:23 34.75394 -81.81582 14910 ft 410 kts 59°
2026-05-09 03:23 34.76859 -81.78586 15497 ft 414 kts 56°
2026-05-09 03:23 34.78386 -81.75593 16107 ft 419 kts 55°
2026-05-09 03:24 34.79920 -81.72546 16745 ft 425 kts 56°
2026-05-09 03:24 34.81450 -81.69442 17364 ft 431 kts 56°
2026-05-09 03:24 34.83007 -81.66293 18011 ft 437 kts 56°
2026-05-09 03:24 34.84598 -81.63112 18638 ft 442 kts 55°
2026-05-09 03:25 34.86207 -81.59893 19241 ft 447 kts 55°
2026-05-09 03:25 34.87844 -81.56648 19844 ft 453 kts 54°
2026-05-09 03:25 34.89520 -81.53371 20466 ft 459 kts 54°
2026-05-09 03:25 34.91209 -81.50045 21095 ft 464 kts 54°
2026-05-09 03:26 34.92906 -81.46670 21720 ft 470 kts 54°
2026-05-09 03:26 34.94625 -81.43254 22359 ft 476 kts 54°
2026-05-09 03:26 34.96359 -81.39823 23132 ft 477 kts 54°
2026-05-09 03:26 34.98109 -81.36359 23715 ft 483 kts 53°
2026-05-09 03:27 34.99880 -81.32841 24175 ft 490 kts 54°
2026-05-09 03:27 35.01670 -81.29274 24625 ft 497 kts 54°
2026-05-09 03:27 35.03486 -81.25658 25051 ft 504 kts 53°
2026-05-09 03:27 35.05330 -81.21989 25492 ft 511 kts 53°
2026-05-09 03:28 35.07195 -81.18267 25958 ft 517 kts 53°
2026-05-09 03:28 35.09079 -81.14502 26411 ft 523 kts 53°
2026-05-09 03:28 35.10986 -81.10688 26847 ft 530 kts 53°
2026-05-09 03:28 35.12918 -81.06828 27302 ft 536 kts 53°
2026-05-09 03:29 35.14846 -81.02972 27760 ft 542 kts 53°
2026-05-09 03:29 35.16821 -80.99011 28248 ft 548 kts 53°
2026-05-09 03:29 35.18868 -80.95048 28569 ft 553 kts 49°
2026-05-09 03:29 35.21297 -80.91435 29022 ft 549 kts 39°
2026-05-09 03:30 35.24072 -80.88259 29476 ft 543 kts 30°
2026-05-09 03:30 35.27117 -80.85592 29910 ft 536 kts 21°
2026-05-09 03:30 35.30288 -80.83311 30292 ft 538 kts 19°
2026-05-09 03:30 35.33485 -80.81019 30693 ft 542 kts 19°
2026-05-09 03:31 35.36748 -80.78655 31083 ft 547 kts 19°
2026-05-09 03:31 35.40015 -80.76286 31708 ft 546 kts 19°
2026-05-09 03:31 35.43286 -80.73929 32314 ft 544 kts 18°
2026-05-09 03:31 35.46552 -80.71582 32860 ft 545 kts 18°
2026-05-09 03:32 35.49826 -80.69217 33406 ft 546 kts 18°
2026-05-09 03:32 35.53099 -80.66839 33961 ft 547 kts 18°
2026-05-09 03:32 35.56298 -80.64200 34409 ft 562 kts 26°
2026-05-09 03:32 35.59358 -80.61197 34972 ft 562 kts 28°
2026-05-09 03:33 35.62408 -80.58213 35576 ft 559 kts 27°
2026-05-09 03:33 35.65454 -80.55268 36187 ft 557 kts 27°
2026-05-09 03:33 35.68491 -80.52313 36785 ft 556 kts 27°
2026-05-09 03:33 35.71509 -80.49346 37374 ft 555 kts 27°
2026-05-09 03:34 35.74520 -80.46384 38016 ft 553 kts 27°
2026-05-09 03:34 35.77527 -80.43444 38675 ft 551 kts 26°
2026-05-09 03:34 35.80521 -80.40517 39249 ft 549 kts 26°
2026-05-09 03:34 35.83494 -80.37592 39870 ft 545 kts 26°
2026-05-09 03:35 35.86439 -80.34687 40486 ft 540 kts 26°
2026-05-09 03:35 35.89363 -80.31811 41110 ft 535 kts 26°
2026-05-09 03:35 35.92266 -80.28960 41685 ft 532 kts 26°
2026-05-09 03:35 35.95150 -80.26119 42224 ft 529 kts 26°
2026-05-09 03:36 35.98013 -80.23289 42729 ft 526 kts 26°
2026-05-09 03:36 36.00865 -80.20469 43241 ft 524 kts 26°
2026-05-09 03:36 36.03700 -80.17669 43731 ft 521 kts 26°
2026-05-09 03:36 36.06520 -80.14879 44236 ft 518 kts 26°
2026-05-09 03:37 36.09321 -80.12101 44793 ft 514 kts 26°
2026-05-09 03:37 36.12110 -80.09337 45017 ft 516 kts 26°
2026-05-09 03:37 36.17798 -80.03710 45036 ft 531 kts 27°
2026-05-09 03:38 36.23619 -79.97901 45046 ft 543 kts 27°
2026-05-09 03:38 36.29570 -79.91980 45050 ft 554 kts 28°
2026-05-09 03:39 36.35617 -79.85929 45052 ft 561 kts 28°
2026-05-09 03:39 36.41701 -79.79840 45057 ft 562 kts 28°
2026-05-09 03:40 36.47736 -79.73785 45053 ft 562 kts 28°
2026-05-09 03:40 36.53849 -79.67642 45027 ft 561 kts 28°
2026-05-09 03:41 36.59928 -79.61519 45033 ft 562 kts 29°
2026-05-09 03:41 36.66001 -79.55388 45028 ft 561 kts 29°
2026-05-09 03:42 36.72057 -79.49265 45029 ft 561 kts 29°
2026-05-09 03:42 36.78121 -79.43117 45040 ft 562 kts 29°
2026-05-09 03:43 36.84163 -79.36978 45019 ft 560 kts 29°
2026-05-09 03:43 36.90172 -79.30867 45010 ft 560 kts 29°
2026-05-09 03:44 36.96212 -79.24703 45009 ft 561 kts 30°
2026-05-09 03:44 37.02247 -79.18535 45016 ft 559 kts 30°
2026-05-09 03:45 37.08269 -79.12367 45015 ft 560 kts 30°
2026-05-09 03:45 37.14297 -79.06179 45012 ft 560 kts 30°
2026-05-09 03:46 37.20315 -78.99988 45056 ft 560 kts 30°
2026-05-09 03:46 37.26312 -78.93803 45019 ft 556 kts 30°
2026-05-09 03:47 37.32303 -78.87620 45016 ft 557 kts 30°
2026-05-09 03:47 37.38286 -78.81422 45009 ft 558 kts 30°
2026-05-09 03:48 37.44278 -78.75208 45004 ft 557 kts 30°
2026-05-09 03:48 37.50251 -78.68999 44999 ft 558 kts 30°
2026-05-09 03:49 37.56235 -78.62761 45003 ft 559 kts 30°
2026-05-09 03:49 37.62226 -78.56506 45001 ft 559 kts 30°
2026-05-09 03:50 37.68206 -78.50248 44997 ft 558 kts 31°
2026-05-09 03:50 37.74190 -78.43974 44986 ft 559 kts 31°
2026-05-09 03:51 37.80165 -78.37693 44987 ft 559 kts 31°
2026-05-09 03:51 37.86138 -78.31403 44979 ft 559 kts 31°
2026-05-09 03:52 37.92102 -78.25106 44978 ft 559 kts 31°
2026-05-09 03:52 37.98079 -78.18781 45007 ft 559 kts 31°
2026-05-09 03:53 38.00921 -78.15350 44990 ft 570 kts 40°
2026-05-09 03:53 38.03420 -78.11408 44997 ft 579 kts 48°
2026-05-09 03:53 38.07670 -78.02638 45013 ft 585 kts 54°
2026-05-09 03:54 38.12045 -77.93984 45003 ft 581 kts 50°
2026-05-09 03:54 38.16383 -77.85277 44990 ft 584 kts 53°
2026-05-09 03:55 38.19951 -77.78006 44988 ft 583 kts 51°
2026-05-09 03:55 38.24329 -77.69320 45050 ft 584 kts 52°
2026-05-09 03:56 38.28611 -77.60545 44995 ft 583 kts 52°
2026-05-09 03:56 38.32954 -77.51829 44993 ft 583 kts 52°
2026-05-09 03:57 38.37239 -77.43053 44993 ft 583 kts 52°
2026-05-09 03:57 38.41757 -77.34507 44975 ft 575 kts 44°
2026-05-09 03:58 38.47074 -77.26974 45005 ft 570 kts 40°
2026-05-09 03:58 38.52331 -77.19344 45000 ft 572 kts 43°
2026-05-09 03:59 38.57589 -77.11743 44988 ft 571 kts 41°
2026-05-09 03:59 38.62855 -77.04135 44984 ft 572 kts 42°
2026-05-09 04:00 38.68085 -76.96502 44964 ft 569 kts 41°
2026-05-09 04:00 38.73324 -76.88911 44981 ft 570 kts 41°
2026-05-09 04:01 38.78543 -76.81259 44987 ft 569 kts 41°
2026-05-09 04:01 38.83735 -76.73689 44994 ft 570 kts 41°
2026-05-09 04:02 38.88930 -76.66047 44988 ft 568 kts 41°
2026-05-09 04:02 38.94138 -76.58406 45000 ft 568 kts 41°
2026-05-09 04:03 38.99324 -76.50748 44999 ft 568 kts 41°
2026-05-09 04:03 39.04523 -76.43076 44986 ft 568 kts 41°
2026-05-09 04:04 39.09695 -76.35409 45000 ft 568 kts 41°
2026-05-09 04:04 39.14872 -76.27726 44999 ft 568 kts 42°
2026-05-09 04:05 39.20047 -76.20021 44999 ft 568 kts 42°
2026-05-09 04:05 39.25210 -76.12317 44988 ft 566 kts 42°
2026-05-09 04:06 39.30357 -76.04621 44984 ft 567 kts 42°
2026-05-09 04:06 39.35501 -75.96907 44987 ft 567 kts 42°
2026-05-09 04:07 39.40648 -75.89173 45001 ft 567 kts 43°
2026-05-09 04:07 39.45754 -75.81479 44994 ft 565 kts 43°
2026-05-09 04:08 39.50878 -75.73742 44998 ft 565 kts 43°
2026-05-09 04:08 39.55988 -75.66003 44998 ft 565 kts 43°
2026-05-09 04:09 39.61086 -75.58265 45008 ft 563 kts 43°
2026-05-09 04:09 39.66143 -75.50491 45001 ft 567 kts 46°
2026-05-09 04:10 39.70804 -75.42190 45004 ft 569 kts 48°
2026-05-09 04:10 39.75472 -75.33885 44997 ft 569 kts 47°
2026-05-09 04:11 39.80139 -75.25571 45003 ft 570 kts 48°
2026-05-09 04:11 39.84785 -75.17234 44999 ft 569 kts 47°
2026-05-09 04:12 39.89444 -75.08898 45001 ft 570 kts 48°
2026-05-09 04:12 39.94057 -75.00579 45029 ft 572 kts 48°
2026-05-09 04:13 39.98625 -74.92114 44996 ft 572 kts 50°
2026-05-09 04:13 40.03027 -74.83447 45001 ft 573 kts 50°
2026-05-09 04:14 40.07458 -74.74775 45000 ft 575 kts 50°
2026-05-09 04:14 40.11863 -74.66070 44987 ft 575 kts 50°
2026-05-09 04:15 40.16281 -74.57359 44986 ft 575 kts 50°
2026-05-09 04:15 40.20980 -74.48992 44976 ft 564 kts 40°
2026-05-09 04:16 40.26822 -74.42394 44999 ft 550 kts 29°
2026-05-09 04:16 40.32848 -74.36135 45002 ft 557 kts 33°
2026-05-09 04:17 40.38743 -74.29641 44995 ft 550 kts 31°
2026-05-09 04:17 40.44728 -74.23361 44993 ft 553 kts 32°
2026-05-09 04:18 40.50590 -74.16786 44974 ft 559 kts 37°
2026-05-09 04:18 40.55471 -74.08690 44981 ft 574 kts 54°
2026-05-09 04:19 40.58658 -73.98970 45005 ft 584 kts 69°
2026-05-09 04:19 40.60650 -73.88617 45013 ft 584 kts 74°
2026-05-09 04:20 40.63233 -73.78575 44993 ft 575 kts 59°
2026-05-09 04:20 40.67619 -73.69944 44988 ft 562 kts 43°
2026-05-09 04:21 40.73396 -73.63259 45007 ft 545 kts 28°
2026-05-09 04:22 40.82511 -73.54272 44996 ft 555 kts 36°
2026-05-09 04:22 40.88022 -73.47016 45002 ft 562 kts 40°
2026-05-09 04:23 40.93684 -73.39993 44997 ft 555 kts 34°
2026-05-09 04:23 40.99423 -73.33104 45006 ft 560 kts 39°
2026-05-09 04:24 41.05061 -73.25986 45010 ft 558 kts 36°
2026-05-09 04:24 41.10799 -73.19048 45015 ft 559 kts 38°
2026-05-09 04:25 41.16254 -73.11743 45013 ft 566 kts 46°
2026-05-09 04:25 41.20616 -73.02974 45019 ft 572 kts 57°
2026-05-09 04:26 41.24708 -72.93928 45024 ft 571 kts 53°
2026-05-09 04:26 41.29012 -72.85032 45026 ft 574 kts 55°
2026-05-09 04:27 41.33134 -72.75956 45017 ft 572 kts 54°
2026-05-09 04:27 41.37387 -72.67007 45022 ft 573 kts 55°
2026-05-09 04:28 41.41525 -72.57951 45025 ft 573 kts 54°
2026-05-09 04:28 41.45726 -72.48966 45024 ft 573 kts 54°
2026-05-09 04:29 41.49897 -72.39862 45003 ft 573 kts 54°
2026-05-09 04:29 41.54076 -72.30812 45006 ft 573 kts 54°
2026-05-09 04:30 41.58232 -72.21726 45009 ft 572 kts 54°
2026-05-09 04:30 41.62383 -72.12657 45035 ft 571 kts 54°
2026-05-09 04:31 41.66502 -72.03615 45028 ft 570 kts 54°
2026-05-09 04:31 41.70618 -71.94559 45026 ft 570 kts 55°
2026-05-09 04:32 41.74696 -71.85557 45027 ft 568 kts 54°
2026-05-09 04:32 41.78818 -71.76430 45022 ft 569 kts 55°
2026-05-09 04:33 41.82871 -71.67430 44880 ft 561 kts 55°
2026-05-09 04:33 41.84794 -71.62928 44046 ft 552 kts 59°
2026-05-09 04:33 41.86469 -71.58343 43347 ft 542 kts 61°
2026-05-09 04:33 41.88061 -71.53819 42648 ft 531 kts 61°
2026-05-09 04:34 41.89640 -71.49382 41973 ft 522 kts 60°
2026-05-09 04:34 41.91231 -71.45023 41327 ft 518 kts 59°
2026-05-09 04:34 41.92810 -71.40677 40622 ft 519 kts 60°
2026-05-09 04:34 41.94370 -71.36293 39934 ft 521 kts 60°
2026-05-09 04:35 41.95936 -71.31876 39251 ft 527 kts 59°
2026-05-09 04:35 41.97531 -71.27430 38516 ft 532 kts 59°
2026-05-09 04:35 41.99144 -71.22935 37778 ft 533 kts 59°
2026-05-09 04:35 42.00740 -71.18442 37079 ft 533 kts 59°
2026-05-09 04:36 42.02335 -71.13935 36377 ft 534 kts 59°
2026-05-09 04:36 42.03938 -71.09427 35674 ft 535 kts 59°
2026-05-09 04:36 42.05547 -71.04909 34974 ft 535 kts 59°
2026-05-09 04:36 42.07381 -71.00602 34257 ft 527 kts 50°
2026-05-09 04:37 42.09682 -70.96836 33511 ft 515 kts 38°
2026-05-09 04:37 42.12318 -70.93670 32845 ft 503 kts 29°
2026-05-09 04:37 42.15203 -70.91102 32185 ft 491 kts 20°
2026-05-09 04:37 42.18246 -70.89160 31538 ft 478 kts 11°
2026-05-09 04:38 42.21354 -70.87707 30952 ft 472 kts
2026-05-09 04:38 42.24472 -70.86282 30295 ft 472 kts
2026-05-09 04:38 42.27546 -70.84822 29628 ft 464 kts
2026-05-09 04:38 42.30579 -70.83381 29012 ft 460 kts
2026-05-09 04:39 42.33592 -70.81987 28411 ft 456 kts
2026-05-09 04:39 42.36541 -70.80622 27818 ft 453 kts
2026-05-09 04:39 42.39546 -70.79204 27257 ft 449 kts 10°
2026-05-09 04:39 42.42444 -70.77832 26626 ft 445 kts 10°
2026-05-09 04:40 42.45334 -70.76331 26035 ft 445 kts 13°
2026-05-09 04:40 42.48189 -70.74756 25454 ft 442 kts 13°
2026-05-09 04:40 42.51034 -70.73213 24874 ft 438 kts 13°
2026-05-09 04:40 42.53853 -70.71674 24298 ft 435 kts 14°
2026-05-09 04:41 42.56646 -70.70130 23727 ft 432 kts 14°
2026-05-09 04:41 42.59419 -70.68599 23112 ft 428 kts 14°
2026-05-09 04:41 42.62160 -70.67094 22548 ft 424 kts 14°
2026-05-09 04:41 42.64892 -70.65593 21986 ft 421 kts 14°
2026-05-09 04:42 42.67589 -70.64095 21431 ft 418 kts 15°
2026-05-09 04:42 42.70228 -70.62420 20878 ft 417 kts 18°
2026-05-09 04:42 42.72848 -70.60780 20332 ft 413 kts 17°
2026-05-09 04:42 42.75458 -70.59174 19809 ft 410 kts 17°
2026-05-09 04:43 42.78038 -70.57555 19246 ft 406 kts 18°
2026-05-09 04:43 42.80588 -70.55932 18709 ft 403 kts 18°
2026-05-09 04:43 42.83125 -70.54331 18161 ft 400 kts 17°
2026-05-09 04:43 42.85636 -70.52758 17609 ft 395 kts 18°
2026-05-09 04:44 42.87287 -70.51718 17264 ft 394 kts 18°
2026-05-09 04:44 42.89763 -70.50152 16746 ft 391 kts 18°
2026-05-09 04:44 42.92220 -70.48595 16230 ft 388 kts 18°
2026-05-09 04:44 42.94658 -70.47055 15733 ft 384 kts 19°
2026-05-09 04:45 42.97076 -70.45527 15230 ft 381 kts 19°
2026-05-09 04:45 42.99472 -70.44006 14729 ft 379 kts 19°
2026-05-09 04:45 43.01850 -70.42482 14229 ft 376 kts 20°
2026-05-09 04:45 43.04097 -70.40639 13724 ft 377 kts 28°
2026-05-09 04:46 43.06292 -70.38696 13207 ft 374 kts 28°
2026-05-09 04:46 43.08477 -70.36792 12719 ft 371 kts 27°
2026-05-09 04:46 43.10651 -70.34929 12227 ft 368 kts 27°
2026-05-09 04:46 43.12808 -70.33067 11733 ft 365 kts 28°
2026-05-09 04:47 43.14938 -70.31206 11265 ft 360 kts 28°
2026-05-09 04:47 43.16968 -70.29429 10828 ft 333 kts 28°
2026-05-09 04:47 43.18840 -70.27784 10514 ft 308 kts 28°
2026-05-09 04:47 43.20609 -70.26232 10210 ft 298 kts 28°
2026-05-09 04:48 43.22348 -70.24711 9911 ft 296 kts 28°
2026-05-09 04:48 43.24081 -70.23187 9594 ft 295 kts 28°
2026-05-09 04:48 43.25806 -70.21668 9299 ft 294 kts 28°
2026-05-09 04:48 43.27533 -70.20182 8990 ft 292 kts 27°
2026-05-09 04:49 43.29251 -70.18714 8693 ft 290 kts 28°
2026-05-09 04:49 43.30953 -70.17245 8398 ft 288 kts 28°
2026-05-09 04:49 43.32665 -70.15841 8093 ft 284 kts 24°
2026-05-09 04:49 43.34392 -70.14512 7810 ft 284 kts 26°
2026-05-09 04:50 43.36084 -70.13116 7521 ft 283 kts 27°
2026-05-09 04:50 43.37777 -70.11758 7235 ft 281 kts 26°
2026-05-09 04:50 43.39469 -70.10438 6950 ft 279 kts 26°
2026-05-09 04:50 43.41144 -70.09120 6661 ft 277 kts 26°
2026-05-09 04:51 43.42809 -70.07798 6397 ft 275 kts 26°
2026-05-09 04:51 43.44459 -70.06489 6094 ft 273 kts 26°
2026-05-09 04:51 43.46102 -70.05189 5816 ft 271 kts 26°
2026-05-09 04:51 43.47742 -70.03888 5538 ft 273 kts 26°
2026-05-09 04:52 43.49385 -70.02584 5266 ft 273 kts 26°
2026-05-09 04:52 43.51024 -70.01283 4989 ft 272 kts 26°
2026-05-09 04:52 43.52661 -69.99982 4711 ft 271 kts 27°
2026-05-09 04:52 43.54330 -69.98824 4387 ft 266 kts 15°
2026-05-09 04:53 43.56134 -69.98695 4097 ft 257 kts 348°
2026-05-09 04:53 43.57758 -69.99597 3849 ft 251 kts 324°
2026-05-09 04:53 43.59091 -70.01075 3650 ft 249 kts 317°
2026-05-09 04:53 43.60429 -70.02614 3412 ft 251 kts 318°
2026-05-09 04:54 43.61774 -70.04154 3152 ft 252 kts 317°
2026-05-09 04:54 43.62758 -70.06070 2933 ft 239 kts 291°
2026-05-09 04:54 43.63182 -70.08372 2859 ft 248 kts 281°
2026-05-09 04:54 43.63489 -70.10595 2692 ft 226 kts 280°
2026-05-09 04:55 43.63769 -70.12599 2502 ft 201 kts 281°
2026-05-09 04:55 43.64020 -70.14337 2314 ft 165 kts 281°
2026-05-09 04:55 43.64221 -70.15727 2182 ft 131 kts 281°
2026-05-09 04:55 43.64390 -70.16904 2055 ft 123 kts 281°
2026-05-09 04:56 43.64556 -70.18066 1908 ft 123 kts 281°
2026-05-09 04:56 43.64817 -70.19180 1800 ft 124 kts 294°
2026-05-09 04:56 43.65291 -70.20187 1651 ft 126 kts 306°
2026-05-09 04:56 43.65689 -70.21249 1464 ft 125 kts 284°
2026-05-09 04:57 43.65751 -70.22441 1292 ft 125 kts 264°
2026-05-09 04:57 43.65483 -70.23580 1118 ft 126 kts 243°
2026-05-09 04:57 43.64918 -70.24512 936 ft 128 kts 223°
2026-05-09 04:57 43.64375 -70.25463 740 ft 128 kts 245°
2026-05-09 04:58 43.64190 -70.26648 568 ft 127 kts 269°
2026-05-09 04:58 43.64278 -70.27865 400 ft 129 kts 276°
2026-05-09 04:58 43.64349 -70.29075 229 ft 124 kts 275°
2026-05-09 04:58 43.64424 -70.30228 80 ft 117 kts 275°
2026-05-09 04:59 43.64493 -70.31231 73 ft 83 kts 275°
2026-05-09 04:59 43.64529 -70.31746 82 ft 36 kts 275°
2026-05-09 04:59 43.64549 -70.32004 73 ft 10 kts 274°
2026-05-09 04:59 43.64580 -70.32088 92 ft 12 kts 349°
2026-05-09 05:00 43.64657 -70.32059 62 ft 11 kts 60°
2026-05-09 05:00 43.64655 -70.31956 86 ft 11 kts 96°
2026-05-09 05:00 43.64646 -70.31838 62 ft 13 kts 95°
2026-05-09 05:00 43.64637 -70.31702 73 ft 15 kts 95°
2026-05-09 05:01 43.64627 -70.31550 88 ft 17 kts 95°
2026-05-09 05:01 43.64615 -70.31382 52 ft 18 kts 97°
2026-05-09 05:01 43.64604 -70.31237 66 ft 12 kts 95°
2026-05-09 05:01 43.64599 -70.31137 65 ft 11 kts 95°
2026-05-09 05:02 43.64591 -70.31023 64 ft 13 kts 95°
2026-05-09 05:02 43.64582 -70.30896 62 ft 14 kts 95°
2026-05-09 05:02 43.64573 -70.30760 60 ft 11 kts 94°
2026-05-09 05:02 43.64603 -70.30688 60 ft 6 kts
2026-05-09 05:03 43.64647 -70.30698 55 ft 7 kts 355°
2026-05-09 05:03 43.64707 -70.30700 56 ft 9 kts
2026-05-09 05:03 43.64772 -70.30702 61 ft 10 kts 356°
2026-05-09 05:03 43.64857 -70.30708 62 ft 12 kts 359°
2026-05-09 05:04 43.64928 -70.30716 65 ft 6 kts 318°
2026-05-09 05:04 43.64933 -70.30759 66 ft 4 kts 269°
2026-05-09 05:04 43.64933 -70.30787 66 ft 4 kts 278°
2026-05-09 05:04 43.64959 -70.30819 67 ft 4 kts
2026-05-09 05:05 43.64988 -70.30807 63 ft 3 kts 10°
2026-05-09 05:05 43.64993 -70.30808 66 ft 0 kts 355°